Time,TemperatureF,DewpointF,PressureIn,WindDirection,WindDirectionDegrees,WindSpeedMPH,WindSpeedGustMPH,Humidity,HourlyPrecipIn,Conditions,Clouds,dailyrainin,SoftwareType,DateUTC
2013-08-18 00:12:00,69.0,69.0,30.02,ENE,70,0.0,3.0,99,0.00,,,1.28,,2013-08-18 05:12:00,
2013-08-18 00:22:00,69.0,69.0,30.01,NE,55,0.0,3.0,99,0.00,,,1.28,,2013-08-18 05:22:00,
2013-08-18 00:42:00,69.0,69.0,30.01,East,92,0.0,1.0,99,0.00,,,1.28,,2013-08-18 05:42:00,
2013-08-18 00:52:00,68.0,68.0,30.01,ENE,65,0.0,2.0,99,0.00,,,1.28,,2013-08-18 05:52:00,
2013-08-18 01:11:00,68.0,68.0,30.01,ENE,78,0.0,2.0,99,0.00,,,1.28,,2013-08-18 06:11:00,
2013-08-18 01:21:00,69.0,69.0,30.01,East,88,0.0,4.0,99,0.00,,,1.28,,2013-08-18 06:21:00,
2013-08-18 01:42:00,69.0,69.0,30.01,East,79,0.0,2.0,99,0.00,,,1.28,,2013-08-18 06:42:00,
2013-08-18 01:52:00,69.0,69.0,30.01,East,87,1.0,4.0,99,0.00,,,1.28,,2013-08-18 06:52:00,
2013-08-18 02:11:00,69.0,69.0,30.01,East,92,1.0,5.0,99,0.00,,,1.28,,2013-08-18 07:11:00,
2013-08-18 02:22:00,69.0,69.0,30.02,ENE,78,1.0,3.0,99,0.00,,,1.28,,2013-08-18 07:22:00,
2013-08-18 02:42:00,69.0,69.0,30.02,NE,42,0.0,3.0,99,0.00,,,1.28,,2013-08-18 07:42:00,
2013-08-18 02:52:00,69.0,69.0,30.02,ENE,68,0.0,3.0,99,0.00,,,1.28,,2013-08-18 07:52:00,
2013-08-18 03:12:00,69.0,69.0,30.02,ENE,68,1.0,3.0,99,0.00,,,1.28,,2013-08-18 08:12:00,
2013-08-18 03:21:00,69.0,69.0,30.03,ESE,108,0.0,2.0,99,0.00,,,1.28,,2013-08-18 08:21:00,
2013-08-18 03:52:00,69.0,69.0,30.02,ENE,75,0.0,2.0,99,0.00,,,1.28,,2013-08-18 08:52:00,
2013-08-18 04:11:00,69.0,69.0,30.00,ENE,70,1.0,5.0,99,0.01,,,1.29,,2013-08-18 09:11:00,
2013-08-18 04:21:00,69.0,69.0,30.00,ENE,70,1.0,5.0,99,0.01,,,1.29,,2013-08-18 09:21:00,
2013-08-18 04:43:00,69.0,69.0,30.02,East,85,0.0,4.0,99,0.03,,,1.30,,2013-08-18 09:43:00,
2013-08-18 04:53:00,69.0,69.0,30.02,East,85,0.0,4.0,99,0.03,,,1.30,,2013-08-18 09:53:00,
2013-08-18 05:13:00,69.0,69.0,30.01,ENE,70,0.0,2.0,99,0.06,,,1.34,,2013-08-18 10:13:00,
2013-08-18 05:23:00,69.0,69.0,30.01,East,94,0.0,3.0,99,0.07,,,1.36,,2013-08-18 10:23:00,
2013-08-18 05:42:00,69.0,69.0,30.01,East,98,0.0,1.0,99,0.06,,,1.31,,2013-08-18 10:42:00,
2013-08-18 05:52:00,69.0,69.0,30.02,East,86,0.0,1.0,99,0.05,,,1.32,,2013-08-18 10:52:00,
2013-08-18 06:11:00,69.0,69.0,30.03,ENE,75,0.0,1.0,99,0.04,,,1.33,,2013-08-18 11:11:00,
2013-08-18 06:22:00,69.0,69.0,30.04,ESE,102,0.0,1.0,99,0.04,,,1.35,,2013-08-18 11:22:00,
2013-08-18 06:42:00,69.0,69.0,30.04,East,100,0.0,2.0,99,0.06,,,1.18,,2013-08-18 11:42:00,
2013-08-18 06:52:00,69.0,69.0,30.03,East,84,0.0,2.0,99,0.07,,,1.20,,2013-08-18 11:52:00,
2013-08-18 07:11:00,69.0,69.0,30.03,East,91,0.0,2.0,99,0.07,,,1.21,,2013-08-18 12:11:00,
2013-08-18 07:21:00,69.0,69.0,30.03,ENE,72,0.0,2.0,99,0.07,,,1.23,,2013-08-18 12:21:00,
2013-08-18 07:42:00,69.0,69.0,30.02,ENE,77,1.0,3.0,99,0.07,,,1.11,,2013-08-18 12:42:00,
2013-08-18 07:52:00,69.0,69.0,30.03,SE,134,1.0,3.0,99,0.06,,,1.12,,2013-08-18 12:52:00,
2013-08-18 08:11:00,69.0,69.0,30.03,ESE,103,1.0,4.0,99,0.07,,,1.13,,2013-08-18 13:11:00,
2013-08-18 08:21:00,69.0,69.0,30.03,ESE,117,1.0,4.0,99,0.06,,,1.14,,2013-08-18 13:21:00,
2013-08-18 08:42:00,70.0,70.0,30.02,ENE,62,2.0,5.0,99,0.05,,,1.03,,2013-08-18 13:42:00,
2013-08-18 08:52:00,70.0,70.0,30.03,ENE,70,0.0,4.0,99,0.05,,,1.04,,2013-08-18 13:52:00,
2013-08-18 09:11:00,70.0,70.0,30.04,East,101,1.0,3.0,99,0.03,,,1.04,,2013-08-18 14:11:00,
2013-08-18 09:21:00,70.0,70.0,30.04,ENE,63,1.0,5.0,99,0.02,,,1.04,,2013-08-18 14:21:00,
2013-08-18 09:42:00,71.0,71.0,30.04,NE,42,3.0,7.0,99,0.01,,,0.87,,2013-08-18 14:42:00,
2013-08-18 09:53:00,71.0,71.0,30.06,ENE,72,1.0,7.0,99,0.00,,,0.87,,2013-08-18 14:53:00,
2013-08-18 10:12:00,72.0,71.0,30.06,ENE,77,2.0,4.0,98,0.00,,,0.87,,2013-08-18 15:12:00,
2013-08-18 10:22:00,72.0,71.0,30.06,ENE,60,2.0,5.0,98,0.00,,,0.87,,2013-08-18 15:22:00,
2013-08-18 10:43:00,72.0,71.0,30.06,East,95,0.0,2.0,98,0.00,,,0.69,,2013-08-18 15:43:00,
2013-08-18 10:53:00,73.0,72.0,30.06,East,88,0.0,4.0,98,0.00,,,0.69,,2013-08-18 15:53:00,
2013-08-18 11:13:00,73.0,72.0,30.06,SE,133,1.0,6.0,98,0.00,,,0.69,,2013-08-18 16:13:00,
2013-08-18 11:23:00,74.0,73.0,30.06,ESE,110,2.0,6.0,97,0.00,,,0.69,,2013-08-18 16:23:00,
2013-08-18 11:42:00,74.0,73.0,30.05,ENE,63,3.0,6.0,97,0.00,,,0.52,,2013-08-18 16:42:00,
2013-08-18 11:52:00,75.0,74.0,30.05,ENE,68,2.0,7.0,97,0.00,,,0.52,,2013-08-18 16:52:00,
2013-08-18 12:13:00,76.0,75.0,30.05,East,101,1.0,6.0,96,0.00,,,0.52,,2013-08-18 17:13:00,
2013-08-18 12:24:00,77.0,75.0,30.05,ESE,109,0.0,7.0,95,0.00,,,0.52,,2013-08-18 17:24:00,
2013-08-18 12:43:00,77.0,75.0,30.04,ENE,72,1.0,4.0,93,0.00,,,0.47,,2013-08-18 17:43:00,
2013-08-18 12:52:00,77.0,75.0,30.03,ESE,109,1.0,4.0,94,0.00,,,0.47,,2013-08-18 17:52:00,
2013-08-18 13:12:00,78.0,76.0,30.03,ENE,78,1.0,2.0,93,0.00,,,0.47,,2013-08-18 18:12:00,
2013-08-18 13:22:00,80.0,77.0,30.03,SW,215,0.0,4.0,90,0.00,,,0.47,,2013-08-18 18:22:00,
2013-08-18 13:42:00,80.0,77.0,30.02,ESE,115,0.0,5.0,91,0.00,,,0.44,,2013-08-18 18:42:00,
2013-08-18 13:52:00,80.0,77.0,30.03,East,101,2.0,7.0,90,0.00,,,0.44,,2013-08-18 18:52:00,
2013-08-18 14:11:00,81.0,77.0,30.04,SE,139,2.0,9.0,89,0.00,,,0.44,,2013-08-18 19:11:00,
2013-08-18 14:22:00,81.0,77.0,30.02,ENE,68,1.0,5.0,88,0.00,,,0.44,,2013-08-18 19:22:00,
2013-08-18 14:42:00,81.0,77.0,30.03,SE,141,0.0,7.0,88,0.00,,,0.42,,2013-08-18 19:42:00,
2013-08-18 14:52:00,81.0,77.0,30.03,ENE,77,1.0,7.0,88,0.00,,,0.42,,2013-08-18 19:52:00,
2013-08-18 15:12:00,80.0,76.0,30.02,East,85,2.0,4.0,89,0.00,,,0.42,,2013-08-18 20:12:00,
2013-08-18 15:22:00,79.0,75.0,30.02,East,84,5.0,11.0,89,0.00,,,0.42,,2013-08-18 20:22:00,
2013-08-18 15:52:00,75.0,72.0,30.01,SE,135,1.0,5.0,90,0.00,,,0.40,,2013-08-18 20:52:00,
2013-08-18 16:11:00,74.0,72.0,30.03,SW,222,1.0,6.0,92,0.01,,,0.41,,2013-08-18 21:11:00,
2013-08-18 16:22:00,73.0,71.0,30.05,SSE,157,1.0,6.0,94,0.07,,,0.47,,2013-08-18 21:22:00,
2013-08-18 16:53:00,72.0,71.0,30.06,SE,129,1.0,3.0,96,0.17,,,0.55,,2013-08-18 21:53:00,
2013-08-18 17:13:00,72.0,71.0,30.05,ENE,65,1.0,5.0,96,0.21,,,0.60,,2013-08-18 22:13:00,
2013-08-18 17:23:00,71.0,70.0,30.04,East,82,2.0,6.0,97,0.19,,,0.64,,2013-08-18 22:23:00,
2013-08-18 17:42:00,71.0,70.0,30.03,East,91,1.0,6.0,97,0.17,,,0.60,,2013-08-18 22:42:00,
2013-08-18 17:52:00,71.0,70.0,30.03,ESE,117,0.0,3.0,97,0.16,,,0.65,,2013-08-18 22:52:00,
2013-08-18 18:11:00,71.0,70.0,30.03,ENE,72,1.0,5.0,97,0.14,,,0.67,,2013-08-18 23:11:00,
2013-08-18 18:22:00,71.0,70.0,30.01,NE,36,2.0,4.0,97,0.12,,,0.69,,2013-08-18 23:22:00,
2013-08-18 18:42:00,71.0,70.0,30.01,ESE,113,1.0,3.0,97,0.08,,,0.68,,2013-08-18 23:42:00,
2013-08-18 18:52:00,71.0,70.0,30.01,ESE,120,3.0,5.0,97,0.04,,,0.68,,2013-08-18 23:52:00,
2013-08-18 19:12:00,71.0,70.0,30.01,ESE,108,2.0,6.0,96,0.02,,,0.68,,2013-08-19 00:12:00,
2013-08-18 19:21:00,71.0,70.0,30.01,ENE,75,1.0,5.0,97,0.00,,,0.68,,2013-08-19 00:21:00,
2013-08-18 19:42:00,71.0,70.0,30.02,ENE,58,0.0,2.0,97,0.00,,,0.68,,2013-08-19 00:42:00,
2013-08-18 19:52:00,71.0,70.0,30.03,SE,142,0.0,1.0,97,0.00,,,0.68,,2013-08-19 00:52:00,
2013-08-18 20:12:00,71.0,70.0,30.03,ENE,74,0.0,1.0,97,0.00,,,0.68,,2013-08-19 01:12:00,
2013-08-18 20:22:00,71.0,70.0,30.02,East,85,0.0,2.0,97,0.00,,,0.68,,2013-08-19 01:22:00,
2013-08-18 20:42:00,70.0,69.0,30.02,East,82,0.0,1.0,98,0.00,,,0.68,,2013-08-19 01:42:00,
2013-08-18 20:52:00,70.0,69.0,30.02,East,98,0.0,1.0,98,0.00,,,0.68,,2013-08-19 01:52:00,
2013-08-18 21:11:00,70.0,69.0,30.01,ENE,70,0.0,2.0,98,0.00,,,0.68,,2013-08-19 02:11:00,
2013-08-18 21:22:00,70.0,69.0,30.01,ESE,108,0.0,0.0,98,0.00,,,0.68,,2013-08-19 02:22:00,
2013-08-18 21:42:00,70.0,69.0,30.02,ESE,108,0.0,0.0,98,0.00,,,0.67,,2013-08-19 02:42:00,
2013-08-18 21:52:00,69.0,68.0,30.02,ESE,108,0.0,0.0,98,0.00,,,0.67,,2013-08-19 02:52:00,
2013-08-18 22:11:00,69.0,68.0,30.02,ESE,108,0.0,0.0,98,0.00,,,0.67,,2013-08-19 03:11:00,
2013-08-18 22:21:00,69.0,68.0,30.03,ESE,107,0.0,0.0,98,0.00,,,0.67,,2013-08-19 03:21:00,
2013-08-18 22:42:00,69.0,68.0,30.02,ESE,108,0.0,0.0,98,0.00,,,0.66,,2013-08-19 03:42:00,
2013-08-18 22:53:00,69.0,68.0,30.03,ENE,70,0.0,1.0,98,0.01,,,0.67,,2013-08-19 03:53:00,
2013-08-18 23:12:00,69.0,69.0,30.03,ENE,70,0.0,0.0,99,0.01,,,0.67,,2013-08-19 04:12:00,
2013-08-18 23:23:00,69.0,69.0,30.03,East,82,0.0,1.0,99,0.01,,,0.67,,2013-08-19 04:23:00,
2013-08-18 23:42:00,69.0,69.0,30.03,East,82,0.0,1.0,99,0.01,,,0.67,,2013-08-19 04:42:00,
2013-08-18 23:53:00,69.0,69.0,30.03,East,83,0.0,0.0,99,0.00,,,0.67,,2013-08-19 04:53:00,